This demonstration page uses our WeatherBlox Daily Observations layout. Learn more.

40.92945, -100.16068

Hourly Observations for March 1, 2020

Temp ( °F °C ) Dew Point ( °F °C ) Humidity (%) Winds ( mph kmh ) Pressure ( in mb ) Visibility ( mi km ) Precip ( " mm )
12:15 am 00:15 Clear 33 0.8 30 -1.1 87 87 NNW 9 15 29.78 1008 10 16.0934 0 0
12:35 am 00:35 Clear 36 2 31 -0.3 85 85 NW 7 11 29.78 1008 10 16.0934 0 0
12:55 am 00:55 Clear 37 2.5 31 -0.3 82 82 NW 7 11 29.76 1008 10 16.0934 0 0
1:15 am 01:15 Clear 35 1.8 31 -0.6 84 84 WNW 5 7 29.78 1008 10 16.0934 0 0
1:35 am 01:35 Clear 35 1.7 31 -0.8 84 84 WNW 6 9 29.78 1008 10 16.0934 0 0
1:55 am 01:55 Clear 35 1.7 31 -0.7 84 84 W 5 7 29.78 1008 10 16.0934 0 0
2:15 am 02:15 Clear 33 0.5 30 -1.1 89 89 Calm 29.78 1008 10 16.0934 0 0
2:35 am 02:35 Clear 33 0.7 30 -1.2 87 87 Calm 29.78 1008 10 16.0934 0 0
2:55 am 02:55 Clear 34 1.2 30 -1.3 84 84 NW 3 6 29.77 1008 10 16.0934 0 0
3:15 am 03:15 Clear 33 0.5 29 -1.4 87 87 Calm 29.78 1008 10 16.0934 0 0
3:35 am 03:35 Clear 33 0.3 29 -1.6 87 87 Calm 29.78 1009 10 16.0934 0 0
3:55 am 03:55 Clear 35 1.5 29 -1.5 81 81 Calm 29.77 1008 10 16.0934 0 0
4:15 am 04:15 Clear 31 -0.5 28 -2.1 89 89 Calm 29.8 1009 10 16.0934 0 0
4:35 am 04:35 Clear 30 -1 28 -2.5 90 90 NW 5 7 29.81 1009 10 16.0934 0 0
4:55 am 04:55 Clear 33 0.3 28 -2.2 84 84 NW 12 19 29.8 1009 10 16.0934 0 0
5:15 am 05:15 Clear 34 1 28 -2.4 78 78 WNW 10 17 29.81 1009 10 16.0934 0 0
5:35 am 05:35 Clear 34 1.2 28 -2.3 78 78 WNW 10 17 29.81 1010 10 16.0934 0 0
5:55 am 05:55 Clear 34 1.3 28 -2.2 78 78 WNW 13 20 29.81 1010 10 16.0934 0 0
6:15 am 06:15 Clear 36 2.2 29 -1.8 75 75 WNW 13 20 29.81 1010 10 16.0934 0 0
6:35 am 06:35 Clear 36 2.1 29 -1.5 77 77 WNW 15 24 29.84 1010 10 16.0934 0 0
6:55 am 06:55 Clear 36 2.1 29 -1.5 77 77 NNW 13 20 29.84 1010 10 16.0934 0 0
7:15 am 07:15 Sunny 38 3.1 29 -1.6 72 72 N 15 24 29.83 1010 10 16.0934 0 0
7:35 am 07:35 Sunny 37 2.6 29 -1.7 74 74 NNW 17 28 29.85 1011 10 16.0934 0 0
7:55 am 07:55 Sunny 37 2.5 29 -1.8 74 74 NNW 12 19 29.86 1011 10 16.0934 0 0
8:15 am 08:15 Sunny 37 2.7 29 -1.7 73 73 N 6 9 29.88 1012 10 16.0934 0 0
8:35 am 08:35 Sunny 37 2.6 29 -1.6 74 74 N 12 19 29.88 1012 10 16.0934 0 0
8:55 am 08:55 Sunny 37 2.8 29 -1.6 73 73 N 10 17 29.89 1012 10 16.0934 0 0
9:15 am 09:15 Sunny 40 4.2 30 -1.3 68 68 N 14 22 29.89 1012 10 16.0934 0 0
9:35 am 09:35 Sunny 40 4.6 30 -1.1 67 67 N 12 19 29.88 1012 10 16.0934 0 0
9:55 am 09:55 Sunny 44 6.4 30 -1.1 59 59 N 13 20 29.87 1012 10 16.0934 0 0
10:15 am 10:15 Sunny 45 7.1 30 -1 57 57 NNE 15 24 29.88 1012 10 16.0934 0 0
10:35 am 10:35 Sunny 45 7.4 31 -0.8 56 56 N 15 24 29.87 1011 10 16.0934 0 0
10:55 am 10:55 Sunny 47 8.4 31 -0.6 53 53 NNE 17 28 29.87 1011 10 16.0934 0 0
11:15 am 11:15 Sunny 48 9 30 -0.9 50 50 N 18 30 29.86 1011 10 16.0934 0 0
11:35 am 11:35 Sunny 49 9.5 30 -1.3 47 47 N 18 30 29.86 1011 10 16.0934 0 0
11:55 am 11:55 Sunny 50 9.8 30 -1 47 47 NNE 18 30 29.85 1011 10 16.0934 0 0
12:15 pm 12:15 Sunny 50 10 30 -1.3 46 46 NNE 18 30 29.85 1011 10 16.0934 0 0
12:35 pm 12:35 Sunny 51 10.6 31 -0.3 47 47 NNE 17 28 29.85 1011 10 16.0934 0 0
12:55 pm 12:55 Sunny 51 10.7 30 -1.1 44 44 NNE 20 31 29.84 1011 10 16.0934 0 0
1:15 pm 13:15 Sunny 52 11 30 -1.1 43 43 N 20 31 29.83 1010 10 16.0934 0 0
1:35 pm 13:35 Sunny 53 11.4 29 -1.4 41 41 N 18 30 29.83 1010 10 16.0934 0 0
1:55 pm 13:55 Sunny 53 11.6 29 -1.4 41 41 N 16 26 29.82 1010 10 16.0934 0 0
2:15 pm 14:15 Sunny 53 11.7 29 -1.4 40 40 NNE 17 28 29.82 1010 10 16.0934 0 0
2:35 pm 14:35 Sunny 53 11.9 29 -1.5 40 40 N 17 28 29.81 1010 10 16.0934 0 0
2:55 pm 14:55 Sunny 54 12.1 28 -2.2 37 37 NNE 14 22 29.81 1010 10 16.0934 0 0
3:15 pm 15:15 Sunny 54 12.3 29 -1.8 38 38 N 18 30 29.81 1009 10 16.0934 0 0
3:35 pm 15:35 Sunny 54 12.2 28 -2.5 36 36 N 20 31 29.81 1010 10 16.0934 0 0
3:55 pm 15:55 Sunny 54 12 27 -2.9 36 36 N 20 31 29.82 1010 10 16.0934 0 0
4:15 pm 16:15 Sunny 54 12 25 -3.8 33 33 NNE 18 30 29.82 1010 10 16.0934 0 0
4:35 pm 16:35 Sunny 53 11.7 25 -4.1 33 33 N 18 30 29.84 1010 10 16.0934 0 0
4:55 pm 16:55 Sunny 53 11.5 25 -3.9 34 34 N 17 28 29.84 1010 10 16.0934 0 0
5:15 pm 17:15 Sunny 52 11 24 -4.2 34 34 N 17 28 29.84 1011 10 16.0934 0 0
5:35 pm 17:35 Sunny 49 9.5 25 -4.1 38 38 NNE 14 22 29.87 1011 10 16.0934 0 0
5:55 pm 17:55 Sunny 47 8.6 24 -4.4 40 40 NNE 12 19 29.87 1012 10 16.0934 0 0
6:15 pm 18:15 Sunny 46 7.6 26 -3.6 45 45 N 8 13 29.91 1013 10 16.0934 0 0
6:35 pm 18:35 Clear 44 6.4 26 -3.1 51 51 N 9 15 29.93 1014 10 16.0934 0 0
6:55 pm 18:55 Clear 44 6.7 26 -3.2 50 50 N 13 20 29.94 1014 10 16.0934 0 0
7:15 pm 19:15 Clear 43 6.1 26 -3.4 51 51 N 12 19 29.96 1014 10 16.0934 0 0
7:35 pm 19:35 Clear 42 5.4 26 -3.5 53 53 N 10 17 29.97 1015 10 16.0934 0 0
7:55 pm 19:55 Clear 41 5 26 -3.5 55 55 N 15 24 29.99 1016 10 16.0934 0 0
8:15 pm 20:15 Clear 39 4.1 26 -3.4 58 58 N 13 20 30.01 1016 10 16.0934 0 0
8:35 pm 20:35 Clear 38 3.5 26 -3.5 61 61 N 14 22 30.01 1016 10 16.0934 0 0
8:55 pm 20:55 Clear 38 3.1 26 -3.4 63 63 N 14 22 30.03 1017 10 16.0934 0 0
9:15 pm 21:15 Clear 37 2.8 27 -3 66 66 N 12 19 30.05 1018 10 16.0934 0 0
9:35 pm 21:35 Clear 35 1.9 27 -3 70 70 N 8 13 30.06 1018 10 16.0934 0 0
9:55 pm 21:55 Clear 34 1.2 27 -3 74 74 N 9 15 30.08 1018 10 16.0934 0 0
10:15 pm 22:15 Clear 33 0.6 27 -3 77 77 N 7 11 30.08 1019 10 16.0934 0 0
10:35 pm 22:35 Clear 32 0.2 27 -3 79 79 NNW 7 11 30.08 1019 10 16.0934 0 0
10:55 pm 22:55 Clear 34 1.2 27 -2.8 75 75 N 9 15 30.08 1018 10 16.0934 0 0
11:15 pm 23:15 Partly Cloudy 34 1.2 27 -2.6 76 76 N 9 15 30.08 1018 10 16.0934 0 0
11:35 pm 23:35 Partly Cloudy 35 1.8 27 -2.8 72 72 N 9 15 30.08 1019 10 16.0934 0 0
11:55 pm 23:55 Mostly Cloudy 35 1.5 27 -2.8 73 73 N 8 13 30.08 1019 10 16.0934 0 0

Powered by AerisWeather